loading
|

DELTA 1 DEB, 3123

Orbit data source: Space-Track

DELTA 1 DEB, 3123 is space debris in LEO originally from a launch on Fri, 10 Nov 1967 UTC launched from the Air Force Western Test Range (AFWTR). Debris objects in space refer to the collection of defunct objects orbiting the Earth. Examples of debris include non-operational satellites, rocket bodies, and fragments generated from explosions, collisions, or faulty payload assembly.

Loading next visibility...
Next conjunction unknown
Loading greatness...
DELTA 1 DEB details
Identifier
3123, 1967-114D
Orbit
LEO
Last TLE update16 hours ago
Origin
Flag of USGSFC (US)
ManufacturerUnknown
MissionSpacecraft
Bus & MotorUnknown bus, Unknown motor
MassUnknown
Launch date (UTC)
1967-11-10 (57 years ago)
Launch vehicleUnknown
Launch site
Air Force Western Test Range (AFWTR)
Object type
Payload
Rocket body
Debris
Shape & HBRUnknown
Radar Cross SectionSmall (<0.1 m²)

Expand to show TLE details & history

TLE from 16 hours ago
0 DELTA 1 DEB
1  3123U 67114D   24286.10994394 -.00000014  00000-0  23085-3 0  9996
2  3123 102.4153  27.6851 0028042 315.1184 168.6487 12.48075747593018
Epoch: 2024-10-12T02:38Z
Definitive object data (Epoch: 2024-10-12T02:38:19.156Z)
Latitude54.31457°
Longitude164.69473°
Altitude1,502.856 km
Speed7.108 km/s
True Right ascension15h 01m 46s
True Declination54° 10' 01"
Sunlit
Object was in daylight at TLE epoch
Predictive object data (real-time)
Latitude14.86684°
Longitude150.94129°
Altitude1,493.294 km
Speed7.11 km/s
Apparent Right ascension16h 07m 51s
Apparent Declination-30° 19' 27"
Sunlit
Object is in daylight
Predictive observer data (real-time)
Local Sidereal Time12:41:41
Azimuth137.269° SSE
Elevation5.035°
Doppler factor1
Orbital elements
Apogee1,492.151 km
Perigee1,448.135 km
Semi-major axis7,848.28 km
Eccentricity0.0028042
Inclination102.4153°
RAAN27.6851°
Arg. of periapsis315.1184°
True anomaly168.71173°
Mean anomaly168.6487°
Eccentric anomaly168.68024°
Mean motion3.12163 °/min
BSTAR0.00023085
Period115.32 mins
No data available
No data available
Other satellites on launch #114 in the year 1967 (1967-11-10 UTC)

DELTA 1 DEB Visibility forecast

Observer location: 39.9160978°, -105.1181434

Span
Click to sort rows by Start time (UTC) header in descending order
Start Az.
Max El. time (UTC)
Max El. Az.
Max El.
End time (UTC)
End Az.
16 mins2024-10-12 19:53:54.772Z19.601° NNE2024-10-12 20:01:54.772Z77.379° E44.735°2024-10-12 20:09:54.772Z196.77° SSW
10 mins2024-10-12 21:49:54.772Z345.831° N2024-10-12 21:53:54.772Z311.887° NW22.132°2024-10-12 21:59:54.772Z262.641° W
12 mins2024-10-13 05:04:54.772Z101.58° ESE2024-10-13 05:09:54.772Z59.069° ENE24.683°2024-10-13 05:16:54.772Z1.811° NNE
15 mins2024-10-13 06:55:54.772Z170.868° S2024-10-13 07:02:54.772Z263.114° W43.567°2024-10-13 07:10:54.772Z337.798° N
4 mins2024-10-13 08:55:54.772Z261.737° W2024-10-13 08:56:54.772Z269.142° W11.885°2024-10-13 08:59:54.772Z290.879° WNW